Weather History for KFMH - March, 2015

Change the Weather History Date:

Friday, March 13, 2015

  Actual Average Record
Temperature  
Mean Temperature 27 °F -  
Max Temperature 35 °F 40 °F 55 °F (2012)
Min Temperature 19 °F 25 °F 12 °F (1998)
Degree Days  
Heating Degree Days 38    
Moisture  
Dew Point 9 °F    
Average Humidity 45    
Maximum Humidity 75    
Minimum Humidity 25    
Precipitation  
Precipitation 0.00 in - - ()
Sea Level Pressure  
Sea Level Pressure 30.54 in    
Wind  
Wind Speed 8 mph (WNW)    
Max Wind Speed 14 mph    
Max Gust Speed 20 mph    
Visibility 10 miles    
Events      
Averages and records for this station are not official NWS values.
T = Trace of Precipitation, MM = Missing Value Source: NWS Daily Summary

Daily Weather History Graph

Daily Weather History Graph

Search for Another Location

Airport or City:

Trip Planner

Search our weather history database for the weather conditions in past years. The results will help you decide how hot, cold, wet, or windy it might be!

Date:

Astronomy

Mar. 13, 2015 Rise Set
Actual Time 6:57 AM EDT 6:46 PM EDT
Civil Twilight 6:30 AM EDT 7:13 PM EDT
Nautical Twilight 5:57 AM EDT 7:46 PM EDT
Astronomical Twilight 5:25 AM EDT 8:18 PM EDT
Moon 1:29 AM EDT (3/13) 11:34 AM EDT (3/13)
Length of Visible Light 12h 43m
Length of Day
11h 48m
Waning Gibbous, 51% of the Moon is Illuminated
Mar 13
Waning Gibbous
Mar 13
Last Quarter
Mar 20
New
Mar 27
First Quarter
Apr 4
Full

Hourly Weather History & Observations

Time (EDT) Temp. Windchill Dew Point Humidity Pressure Visibility Wind Dir Wind Speed Gust Speed Precip Events Conditions
12:15 AM 26.6 °F 18.2 °F 3.2 °F 37% 30.52 in 10.0 mi NW 8.1 mph - N/A   Clear
12:35 AM 26.6 °F 19.1 °F 3.2 °F 37% 30.54 in 10.0 mi North 6.9 mph - N/A   Clear
12:55 AM 26.6 °F 19.1 °F 3.2 °F 37% 30.54 in 10.0 mi NNW 6.9 mph 13.8 mph N/A   Clear
1:15 AM 24.8 °F 16.1 °F 5.0 °F 43% 30.54 in 10.0 mi NNW 8.1 mph - N/A   Clear
1:35 AM 24.8 °F 14.6 °F 3.2 °F 40% 30.54 in 10.0 mi NNW 10.4 mph - N/A   Clear
1:55 AM 24.8 °F 14.6 °F 3.2 °F 40% 30.56 in 10.0 mi NNW 10.4 mph 19.6 mph N/A   Clear
2:15 AM 24.8 °F 14.6 °F 3.2 °F 40% 30.55 in 10.0 mi NNW 10.4 mph - N/A   Clear
2:35 AM 24.8 °F 16.9 °F 1.4 °F 36% 30.57 in 10.0 mi NNW 6.9 mph 12.7 mph N/A   Clear
2:55 AM 24.8 °F 16.9 °F 3.2 °F 40% 30.57 in 10.0 mi NW 6.9 mph - N/A   Scattered Clouds
3:15 AM 23.0 °F 14.7 °F 3.2 °F 43% 30.58 in 10.0 mi NNW 6.9 mph - N/A   Partly Cloudy
3:35 AM 23.0 °F 15.8 °F 3.2 °F 43% 30.58 in 10.0 mi NW 5.8 mph - N/A   Clear
3:55 AM 23.0 °F 15.8 °F 3.2 °F 43% 30.58 in 10.0 mi NW 5.8 mph - N/A   Clear
4:15 AM 23.0 °F 15.8 °F 3.2 °F 43% 30.59 in 10.0 mi NW 5.8 mph - N/A   Clear
4:35 AM 23.0 °F 15.8 °F 3.2 °F 43% 30.59 in 10.0 mi NW 5.8 mph - N/A   Scattered Clouds
4:55 AM 21.2 °F 14.9 °F 3.2 °F 46% 30.60 in 10.0 mi NNW 4.6 mph - N/A   Mostly Cloudy
5:15 AM 21.2 °F 14.9 °F 3.2 °F 46% 30.60 in 10.0 mi NNW 4.6 mph - N/A   Partly Cloudy
5:35 AM 21.2 °F 14.9 °F 3.2 °F 46% 30.60 in 10.0 mi NNW 4.6 mph - N/A   Clear
5:55 AM 21.2 °F 14.9 °F 3.2 °F 46% 30.60 in 10.0 mi NNW 4.6 mph - N/A   Clear
6:15 AM 21.2 °F 14.9 °F 1.4 °F 42% 30.61 in 10.0 mi NNW 4.6 mph - N/A   Clear
6:35 AM 21.2 °F 14.9 °F 1.4 °F 42% 30.61 in 10.0 mi NNW 4.6 mph - N/A   Clear
6:55 AM 19.4 °F 14.3 °F 1.4 °F 46% 30.61 in 10.0 mi North 3.5 mph - N/A   Clear
7:15 AM 19.4 °F - 3.2 °F 49% 30.61 in 10.0 mi Calm Calm - N/A   Clear
7:35 AM 19.4 °F - 3.2 °F 49% 30.62 in 10.0 mi Calm Calm - N/A   Clear
7:55 AM 21.2 °F - 3.2 °F 46% 30.62 in 10.0 mi Calm Calm - N/A   Clear
8:15 AM 23.0 °F 15.8 °F 3.2 °F 43% 30.62 in 10.0 mi NNW 5.8 mph - N/A   Clear
8:35 AM 24.8 °F 19.1 °F 3.2 °F 40% 30.61 in 10.0 mi Variable 4.6 mph - N/A   Clear
8:55 AM 24.8 °F 16.1 °F 3.2 °F 40% 30.61 in 10.0 mi NNW 8.1 mph - N/A   Clear
9:15 AM 26.6 °F 17.5 °F 3.2 °F 37% 30.60 in 10.0 mi NNW 9.2 mph - N/A   Clear
9:35 AM 28.4 °F 19.7 °F 3.2 °F 34% 30.60 in 10.0 mi NNW 9.2 mph - N/A   Clear
9:55 AM 28.4 °F 18.5 °F 3.2 °F 34% 30.59 in 10.0 mi North 11.5 mph - N/A   Clear
10:15 AM 30.2 °F 21.3 °F 3.2 °F 32% 30.59 in 10.0 mi North 10.4 mph - N/A   Clear
10:35 AM 30.2 °F 22.6 °F 3.2 °F 32% 30.60 in 10.0 mi NNE 8.1 mph 15.0 mph N/A   Clear
10:55 AM 32.0 °F 24.2 °F 3.2 °F 30% 30.60 in 10.0 mi NNE 9.2 mph - N/A   Clear
11:15 AM 32.0 °F 25.6 °F 3.2 °F 30% 30.59 in 10.0 mi Variable 6.9 mph - N/A   Clear
11:35 AM 32.0 °F 23.0 °F 8.6 °F 38% 30.60 in 10.0 mi NE 11.5 mph - N/A   Clear
11:55 AM 32.0 °F 25.6 °F 8.6 °F 38% 30.60 in 10.0 mi Variable 6.9 mph - N/A   Clear
12:15 PM 32.0 °F 26.4 °F 6.8 °F 35% 30.59 in 10.0 mi ENE 5.8 mph - N/A   Clear
12:35 PM 32.0 °F 27.5 °F 6.8 °F 35% 30.59 in 10.0 mi ENE 4.6 mph - N/A   Clear
12:55 PM 33.8 °F - 5.0 °F 30% 30.59 in 10.0 mi Calm Calm - N/A   Clear
1:15 PM 35.6 °F - 3.2 °F 26% 30.58 in 10.0 mi Calm Calm - N/A   Clear
1:35 PM 33.8 °F - 1.4 °F 25% 30.56 in 10.0 mi Calm Calm - N/A   Clear
1:55 PM 35.6 °F - 3.2 °F 26% 30.55 in 10.0 mi Calm Calm - N/A   Scattered Clouds
2:15 PM 35.6 °F 28.0 °F 5.0 °F 28% 30.54 in 10.0 mi West 10.4 mph - N/A   Partly Cloudy
2:35 PM 35.6 °F 29.2 °F 5.0 °F 28% 30.53 in 10.0 mi West 8.1 mph - N/A   Clear
2:55 PM 35.6 °F 31.7 °F 5.0 °F 28% 30.52 in 10.0 mi West 4.6 mph - N/A   Clear
3:15 PM 35.6 °F 30.7 °F 6.8 °F 30% 30.51 in 10.0 mi WSW 5.8 mph - N/A   Clear
3:35 PM 35.6 °F 30.7 °F 5.0 °F 28% 30.51 in 10.0 mi WSW 5.8 mph - N/A   Clear
3:55 PM 35.6 °F 28.6 °F 14.0 °F 41% 30.50 in 10.0 mi South 9.2 mph - N/A   Clear
4:15 PM 33.8 °F 27.7 °F 14.0 °F 44% 30.50 in 10.0 mi Variable 6.9 mph 13.8 mph N/A   Clear
4:35 PM 35.6 °F 28.0 °F 10.4 °F 35% 30.51 in 10.0 mi SW 10.4 mph - N/A   Clear
4:55 PM 33.8 °F 25.3 °F 14.0 °F 44% 30.50 in 10.0 mi SW 11.5 mph - N/A   Clear
5:15 PM 32.0 °F 22.1 °F 15.8 °F 51% 30.50 in 10.0 mi WSW 13.8 mph - N/A   Clear
5:35 PM 32.0 °F 22.1 °F 15.8 °F 51% 30.49 in 10.0 mi SW 13.8 mph - N/A   Partly Cloudy
5:55 PM 32.0 °F 22.5 °F 15.8 °F 51% 30.49 in 10.0 mi WSW 12.7 mph - N/A   Clear
6:15 PM 32.0 °F 23.0 °F 17.6 °F 55% 30.49 in 10.0 mi SW 11.5 mph - N/A   Clear
6:35 PM 30.2 °F 21.3 °F 17.6 °F 60% 30.48 in 10.0 mi SW 10.4 mph - N/A   Scattered Clouds
6:55 PM 30.2 °F 21.3 °F 17.6 °F 60% 30.47 in 10.0 mi SSW 10.4 mph - N/A   Scattered Clouds
7:15 PM 30.2 °F 21.9 °F 17.6 °F 60% 30.47 in 10.0 mi SW 9.2 mph - N/A   Mostly Cloudy
7:35 PM 30.2 °F 21.9 °F 19.4 °F 64% 30.47 in 10.0 mi SW 9.2 mph - N/A   Overcast
7:55 PM 30.2 °F 20.8 °F 19.4 °F 64% 30.47 in 10.0 mi SW 11.5 mph - N/A   Overcast
8:15 PM 30.2 °F 21.9 °F 19.4 °F 64% 30.47 in 10.0 mi SW 9.2 mph - N/A   Overcast
8:35 PM 30.2 °F 21.3 °F 19.4 °F 64% 30.46 in 10.0 mi SW 10.4 mph - N/A   Overcast
8:55 PM 30.2 °F 21.3 °F 21.2 °F 69% 30.46 in 10.0 mi SW 10.4 mph - N/A   Overcast
9:15 PM 32.0 °F 23.0 °F 21.2 °F 64% 30.46 in 10.0 mi SW 11.5 mph - N/A   Overcast
9:35 PM 32.0 °F 23.6 °F 21.2 °F 64% 30.46 in 10.0 mi SW 10.4 mph - N/A   Overcast
9:55 PM 32.0 °F 23.6 °F 21.2 °F 64% 30.44 in 10.0 mi SW 10.4 mph 17.3 mph N/A   Overcast
10:15 PM 32.0 °F 23.0 °F 21.2 °F 64% 30.44 in 10.0 mi SW 11.5 mph - N/A   Overcast
10:35 PM 32.0 °F 23.6 °F 21.2 °F 64% 30.43 in 10.0 mi SW 10.4 mph - N/A   Overcast
10:55 PM 32.0 °F 24.2 °F 23.0 °F 69% 30.42 in 10.0 mi SW 9.2 mph - N/A   Overcast
11:15 PM 32.0 °F 24.2 °F 23.0 °F 69% 30.41 in 10.0 mi SSW 9.2 mph - N/A   Overcast
11:35 PM 32.0 °F 24.2 °F 23.0 °F 69% 30.41 in 10.0 mi SSW 9.2 mph - N/A   Overcast
11:55 PM 32.0 °F 24.8 °F 24.8 °F 75% 30.40 in 10.0 mi SSW 8.1 mph - N/A   Overcast